WA1DLZ Weather Reports


Display with metric or nautical units.
time (UTC)temp
F
wind
direction
speed
MPH
gust
MPH
rain 1hr
in
rain 24hr
in
rain mn
in
humidity
%
barometer
mb
20260505195503 77 188 6.0 17.0 0.00 0.00 0.00 50 1001.5
20260505195003 77 224 8.0 23.0 0.00 0.00 0.00 47 1001.5
20260505194503 77 189 6.0 17.0 0.00 0.00 0.00 47 1001.5
20260505194004 78 192 7.0 21.0 0.00 0.00 0.00 47 1001.6
20260505193503 78 175 7.0 20.0 0.00 0.00 0.00 45 1001.7
20260505193003 79 197 6.0 20.0 0.00 0.00 0.00 44 1001.7
20260505192503 79 200 7.0 22.0 0.00 0.00 0.00 45 1001.7
20260505192003 79 181 6.0 18.0 0.00 0.00 0.00 45 1001.9
20260505191503 80 203 3.0 17.0 0.00 0.00 0.00 44 1001.9
20260505191003 80 168 6.0 20.0 0.00 0.00 0.00 45 1001.9
20260505190503 80 181 7.0 18.0 0.00 0.00 0.00 44 1001.9
20260505190004 80 197 8.0 20.0 0.00 0.00 0.00 46 1002.0
20260505185503 80 175 2.0 10.0 0.00 0.00 0.00 45 1002.0
20260505184503 80 156 6.0 20.0 0.00 0.00 0.00 45 1002.1
20260505183503 80 157 2.0 13.0 0.00 0.00 0.00 44 1002.1
20260505183004 80 170 3.0 13.0 0.00 0.00 0.00 43 1002.2
20260505182503 80 169 3.0 12.0 0.00 0.00 0.00 45 1002.2
20260505182003 80 141 2.0 14.0 0.00 0.00 0.00 45 1002.1
20260505181503 80 189 1.0 12.0 0.00 0.00 0.00 45 1002.3
20260505181003 80 182 2.0 10.0 0.00 0.00 0.00 44 1002.3
20260505180504 79 193 3.0 15.0 0.00 0.00 0.00 46 1002.5
20260505180003 79 179 6.0 17.0 0.00 0.00 0.00 47 1002.6
20260505175503 79 186 3.0 16.0 0.00 0.00 0.00 46 1002.7
20260505175003 78 176 7.0 16.0 0.00 0.00 0.00 47 1002.8
20260505174503 78 177 9.0 20.0 0.00 0.00 0.00 46 1002.9
20260505174003 78 190 4.0 15.0 0.00 0.00 0.00 45 1002.9
20260505173003 78 236 6.0 15.0 0.00 0.00 0.00 45 1003.1
20260505172003 79 184 5.0 18.0 0.00 0.00 0.00 45 1003.3
20260505171504 78 187 4.0 13.0 0.00 0.00 0.00 45 1003.3
20260505170504 78 192 5.0 13.0 0.00 0.00 0.00 46 1003.4
20260505170003 78 178 4.0 13.0 0.00 0.00 0.00 45 1003.4
20260505165504 78 195 2.0 10.0 0.00 0.00 0.00 44 1003.4
20260505165003 78 211 4.0 15.0 0.00 0.00 0.00 44 1003.6
20260505164503 78 195 5.0 20.0 0.00 0.00 0.00 46 1003.4
20260505164003 77 203 7.0 17.0 0.00 0.00 0.00 47 1003.7
20260505163004 77 201 5.0 15.0 0.00 0.01 0.00 47 1004.0
20260505162503 77 175 3.0 13.0 0.00 0.02 0.00 46 1003.9
20260505162003 76 201 3.0 18.0 0.00 0.02 0.00 47 1004.1
20260505161503 76 203 8.0 18.0 0.00 0.02 0.00 45 1004.2
20260505161004 75 211 7.0 15.0 0.00 0.02 0.00 46 1004.4
20260505160503 75 196 2.0 13.0 0.00 0.02 0.00 48 1004.4
20260505153003 72 221 3.0 17.0 0.00 0.02 0.00 48 1005.3
20260505152004 73 217 3.0 12.0 0.00 0.02 0.00 47 1005.3
20260505151503 74 221 4.0 10.0 0.00 0.02 0.00 46 1005.3
20260505151003 73 189 4.0 10.0 0.00 0.02 0.00 49 1005.4
20260505150504 72 214 3.0 12.0 0.00 0.02 0.00 50 1005.4
20260505140503 67 209 2.0 7.0 0.00 0.02 0.00 57 1005.5
20260505125004 59 212 0.0 1.0 0.00 0.02 0.00 69 1006.0
20260505124503 59 232 1.0 7.0 0.00 0.02 0.00 68 1006.0
20260505124004 58 188 0.0 6.0 0.00 0.02 0.00 71 1006.1
20260505123503 58 225 1.0 8.0 0.00 0.02 0.00 70 1006.2
20260505123004 57 205 1.0 7.0 0.00 0.02 0.00 72 1006.2
20260505122504 57 203 1.0 5.0 0.00 0.02 0.00 69 1006.1
20260505122003 56 223 0.0 3.0 0.00 0.02 0.00 71 1006.2
20260505121503 56 186 1.0 7.0 0.00 0.02 0.00 72 1006.3
20260505121003 55 156 0.0 7.0 0.00 0.02 0.00 73 1006.3
20260505120504 55 211 1.0 3.0 0.00 0.02 0.00 73 1006.5
20260505120004 55 211 0.0 3.0 0.00 0.02 0.00 74 1006.5
20260505115505 55 211 0.0 0.0 0.00 0.02 0.00 74 1006.5
20260505115003 54 211 1.0 3.0 0.00 0.02 0.00 72 1006.5
20260505114503 54 211 0.0 2.0 0.00 0.02 0.00 74 1006.5
20260505114004 54 223 0.0 3.0 0.00 0.02 0.00 74 1006.4
20260505113503 54 208 0.0 7.0 0.00 0.02 0.00 75 1006.5
20260505112503 53 209 0.0 3.0 0.00 0.02 0.00 76 1006.4
20260505112003 53 269 0.0 0.0 0.00 0.02 0.00 76 1006.4
20260505111504 53 269 0.0 0.0 0.00 0.02 0.00 76 1006.5
20260505111004 52 269 0.0 0.0 0.00 0.02 0.00 79 1006.5
20260505110503 52 269 0.0 0.0 0.00 0.02 0.00 78 1006.4
20260505102004 47 269 0.0 0.0 0.00 0.02 0.00 90 1006.2
20260505101504 46 269 0.0 0.0 0.00 0.02 0.00 91 1006.3
20260505101003 46 269 0.0 0.0 0.00 0.02 0.00 91 1006.3
20260505100504 45 269 0.0 0.0 0.00 0.02 0.00 91 1006.3
20260505095504 45 269 0.0 0.0 0.00 0.02 0.00 91 1006.2
20260505095003 45 269 0.0 0.0 0.00 0.02 0.00 90 1006.2
20260505094503 45 269 0.0 0.0 0.00 0.02 0.00 90 1006.2
20260505094004 45 269 0.0 0.0 0.00 0.02 0.00 90 1006.2
20260505093504 45 269 0.0 0.0 0.00 0.02 0.00 90 1006.1
20260505093004 45 269 0.0 0.0 0.00 0.02 0.00 89 1006.1
20260505092504 45 269 0.0 0.0 0.00 0.02 0.00 89 1006.1
20260505092004 45 269 0.0 1.0 0.00 0.02 0.00 89 1006.1
20260505091504 45 269 0.0 0.0 0.00 0.02 0.00 89 1006.1
20260505091004 45 269 0.0 0.0 0.00 0.02 0.00 89 1006.1
20260505090504 45 269 0.0 1.0 0.00 0.02 0.00 88 1006.2
20260505090004 45 269 0.0 0.0 0.00 0.02 0.00 89 1006.2
20260505085504 45 269 0.0 0.0 0.00 0.02 0.00 87 1006.3
20260505084503 45 269 0.0 0.0 0.00 0.02 0.00 87 1006.3
20260505084004 45 269 0.0 0.0 0.00 0.02 0.00 87 1006.3
20260505083504 46 269 0.0 0.0 0.00 0.02 0.00 86 1006.4
20260505083004 46 269 0.0 0.0 0.00 0.02 0.00 85 1006.4
20260505082503 46 269 0.0 0.0 0.00 0.02 0.00 85 1006.4
20260505082004 46 269 0.0 0.0 0.00 0.02 0.00 84 1006.5
20260505081504 47 269 0.0 0.0 0.00 0.02 0.00 83 1006.5
20260505081004 47 269 0.0 0.0 0.00 0.02 0.00 83 1006.6
20260505080504 47 269 0.0 0.0 0.00 0.02 0.00 82 1006.6
20260505075504 47 268 0.0 0.0 0.00 0.02 0.00 80 1006.6
20260505075004 48 268 1.0 5.0 0.00 0.02 0.00 80 1006.6
20260505074504 48 268 0.0 1.0 0.00 0.02 0.00 78 1006.6
20260505074004 49 267 0.0 0.0 0.00 0.02 0.00 77 1006.6
20260505073504 50 267 0.0 5.0 0.00 0.02 0.00 76 1006.6
20260505073004 50 232 0.0 0.0 0.00 0.02 0.00 74 1006.6
20260505072504 51 232 0.0 1.0 0.00 0.02 0.00 73 1006.5
20260505072004 52 232 0.0 2.0 0.00 0.02 0.00 70 1006.4
20260505071504 53 232 0.0 7.0 0.00 0.02 0.00 69 1006.5
20260505070004 56 212 1.0 3.0 0.00 0.02 0.00 60 1006.4
20260505065504 56 242 1.0 7.0 0.00 0.02 0.00 61 1006.5
20260505065004 57 219 1.0 14.0 0.00 0.02 0.00 61 1006.4
20260505064504 56 244 2.0 12.0 0.00 0.02 0.00 62 1006.3
20260505064004 55 223 5.0 14.0 0.00 0.02 0.00 64 1006.3
20260505063504 55 225 2.0 13.0 0.00 0.02 0.00 64 1006.3
20260505063004 55 228 6.0 12.0 0.00 0.02 0.00 65 1006.3
20260505062504 55 227 6.0 14.0 0.00 0.02 0.00 67 1006.2
20260505062004 55 228 7.0 20.0 0.00 0.02 0.00 66 1006.2
20260505061504 54 226 3.0 12.0 0.00 0.02 0.00 68 1006.4
20260505061004 53 227 6.0 14.0 0.00 0.02 0.00 71 1006.4
20260505060504 51 222 6.0 13.0 0.00 0.02 0.00 76 1006.5
20260505060004 49 217 2.0 15.0 0.00 0.02 0.00 82 1006.5
20260505055504 46 243 2.0 9.0 0.00 0.02 0.00 88 1006.4
20260505055004 45 236 1.0 10.0 0.00 0.02 0.00 90 1006.5
20260505054504 45 274 0.0 2.0 0.00 0.02 0.00 89 1006.5
20260505054004 46 274 0.0 5.0 0.00 0.02 0.00 89 1006.6
20260505053504 45 318 0.0 3.0 0.00 0.02 0.00 89 1006.6
20260505053004 46 211 1.0 3.0 0.00 0.02 0.00 90 1006.5
20260505052504 45 238 1.0 8.0 0.00 0.02 0.00 90 1006.4
20260505052004 45 228 0.0 0.0 0.00 0.02 0.00 91 1006.3
20260505051504 45 228 0.0 0.0 0.00 0.02 0.00 91 1006.4
20260505051004 45 228 0.0 0.0 0.00 0.02 0.00 90 1006.5
20260505050504 45 228 0.0 0.0 0.00 0.02 0.00 90 1006.5
20260505041502 45 228 0.0 0.0 0.00 0.02 0.00 91 1006.2
20260505040503 46 228 0.0 0.0 0.00 0.02 0.00 90 1006.2
20260505040004 46 228 0.0 0.0 0.00 0.02 0.00 90 1006.2
20260505035003 46 228 0.0 0.0 0.00 0.02 0.02 90 1006.2
20260505034502 47 228 0.0 0.0 0.00 0.02 0.02 90 1006.2
20260505034003 47 228 0.0 0.0 0.00 0.02 0.02 90 1006.2
20260505033503 47 228 0.0 0.0 0.00 0.02 0.02 90 1006.1
20260505033002 47 228 0.0 0.0 0.00 0.02 0.02 90 1006.1
20260505032502 46 228 0.0 0.0 0.00 0.02 0.02 90 1006.1
20260505032003 46 228 0.0 0.0 0.00 0.02 0.02 89 1006.1
20260505031502 47 228 0.0 0.0 0.00 0.02 0.02 89 1005.9
20260505031003 47 228 0.0 0.0 0.00 0.02 0.02 87 1005.9
20260505030503 47 228 0.0 0.0 0.00 0.02 0.02 87 1005.9
20260505030002 48 228 0.0 0.0 0.00 0.02 0.02 86 1005.9
20260505025502 48 228 0.0 0.0 0.00 0.02 0.02 86 1006.0
20260505025003 49 228 0.0 0.0 0.00 0.02 0.02 86 1006.1
20260505024003 49 228 0.0 0.0 0.00 0.02 0.02 85 1006.2
20260505023502 49 228 0.0 0.0 0.00 0.02 0.02 84 1006.3
20260505023003 49 228 0.0 0.0 0.00 0.02 0.02 84 1006.2
20260505022503 50 228 0.0 0.0 0.00 0.02 0.02 84 1006.3
20260505021503 49 228 0.0 0.0 0.00 0.02 0.02 86 1006.3
20260505020003 48 229 0.0 0.0 0.00 0.02 0.02 88 1006.2
20260505015502 48 229 0.0 0.0 0.00 0.02 0.02 88 1006.2
20260505015002 48 229 0.0 0.0 0.00 0.02 0.02 89 1006.3
20260505014003 48 229 0.0 0.0 0.00 0.02 0.02 89 1006.3
20260505013503 48 229 0.0 0.0 0.00 0.02 0.02 89 1006.2
20260505013002 48 229 0.0 0.0 0.00 0.02 0.02 88 1006.2
20260505012503 48 229 0.0 0.0 0.00 0.02 0.02 88 1006.2
20260505012003 49 229 0.0 0.0 0.00 0.02 0.02 88 1006.3
20260505011503 49 229 0.0 0.0 0.00 0.02 0.02 88 1006.2
20260505010503 49 229 0.0 0.0 0.00 0.02 0.02 88 1006.0
20260505010003 49 229 0.0 0.0 0.00 0.02 0.02 87 1006.0
20260505005503 49 229 0.0 0.0 0.00 0.02 0.02 86 1006.0
20260505005003 49 229 0.0 0.0 0.00 0.02 0.02 86 1005.9
20260505004503 49 229 0.0 0.0 0.00 0.02 0.02 85 1005.7
20260505004003 49 229 0.0 0.0 0.00 0.02 0.02 85 1005.7
20260505003003 50 229 0.0 0.0 0.00 0.02 0.02 83 1005.5
20260505002503 51 229 0.0 0.0 0.00 0.02 0.02 81 1005.3
20260505002003 52 229 0.0 0.0 0.00 0.02 0.02 79 1005.2
20260505001503 52 229 0.0 0.0 0.00 0.02 0.02 78 1005.2
20260505001003 53 229 0.0 0.0 0.00 0.02 0.02 77 1005.1
20260505000503 53 229 0.0 0.0 0.00 0.02 0.02 76 1005.0
20260504235003 55 229 0.0 0.0 0.00 0.02 0.02 73 1004.9
20260504234003 56 229 0.0 0.0 0.00 0.02 0.02 70 1004.7
20260504233503 57 229 0.0 0.0 0.00 0.02 0.02 69 1004.7
20260504233002 57 229 0.0 0.0 0.00 0.02 0.02 67 1004.7
20260504232503 58 229 0.0 0.0 0.00 0.02 0.02 65 1004.6
20260504231503 59 229 0.0 0.0 0.00 0.02 0.02 63 1004.6
20260504231003 60 229 0.0 0.0 0.00 0.02 0.02 62 1004.7
20260504230503 61 229 0.0 0.0 0.00 0.02 0.02 61 1004.7
20260504225503 63 229 0.0 0.0 0.00 0.02 0.02 58 1004.5
20260504224503 64 229 0.0 0.0 0.00 0.02 0.02 51 1004.4
20260504224003 64 229 1.0 3.0 0.00 0.02 0.02 50 1004.3
20260504223003 64 229 1.0 5.0 0.00 0.02 0.02 49 1004.3
20260504222503 64 222 0.0 3.0 0.00 0.02 0.02 51 1004.3
20260504222004 64 222 1.0 6.0 0.00 0.02 0.02 51 1004.3
20260504221003 63 234 0.0 0.0 0.00 0.02 0.02 52 1004.4
20260504220503 63 233 0.0 3.0 0.00 0.02 0.02 52 1004.5
20260504220003 63 232 0.0 0.0 0.00 0.02 0.02 52 1004.4
20260504215503 63 232 0.0 5.0 0.00 0.02 0.02 52 1004.4
20260504215003 64 232 0.0 3.0 0.00 0.02 0.02 50 1004.5
20260504214503 64 230 0.0 1.0 0.00 0.02 0.02 50 1004.5
20260504214004 64 230 1.0 6.0 0.00 0.02 0.02 51 1004.4
20260504213503 63 229 0.0 2.0 0.00 0.02 0.02 53 1004.5
20260504212503 62 226 1.0 9.0 0.00 0.02 0.02 54 1004.6
20260504212003 62 214 2.0 8.0 0.00 0.02 0.02 53 1004.7
20260504211503 62 266 3.0 9.0 0.00 0.02 0.02 53 1004.7
20260504211003 62 223 1.0 6.0 0.00 0.02 0.02 52 1004.7
20260504210503 63 237 0.0 2.0 0.00 0.02 0.02 53 1004.7
20260504210004 63 240 0.0 9.0 0.00 0.02 0.02 53 1004.6
20260504205503 63 226 5.0 10.0 0.00 0.02 0.02 54 1004.6
20260504205003 63 258 0.0 3.0 0.00 0.02 0.02 55 1004.5
20260504204503 62 258 0.0 5.0 0.00 0.02 0.02 57 1004.6
20260504204003 61 222 1.0 13.0 0.00 0.02 0.02 55 1004.5
20260504203503 61 219 0.0 13.0 0.00 0.02 0.02 56 1004.5
20260504203003 61 235 1.0 2.0 0.00 0.02 0.02 57 1004.5
20260504202003 60 247 1.0 10.0 0.00 0.02 0.02 58 1004.6
20260504201503 60 248 3.0 8.0 0.00 0.02 0.02 57 1004.5
20260504201003 60 237 5.0 13.0 0.00 0.02 0.02 58 1004.7
20260504200503 60 241 0.0 9.0 0.00 0.02 0.02 59 1004.6
20260504200004 60 240 2.0 10.0 0.00 0.02 0.02 57 1004.6